Weather History for LFOT - March, 2013

Change the Weather History Date:

Friday, March 1, 2013

  Actual Average Record
Temperature  
Mean Temperature 37 °F -  
Max Temperature 41 °F 53 °F 62 °F (1997)
Min Temperature 33 °F 38 °F 14 °F (2005)
Degree Days  
Heating Degree Days 28    
Moisture  
Dew Point 32 °F    
Average Humidity 82    
Maximum Humidity 93    
Minimum Humidity 59    
Precipitation  
Precipitation 0.00 in - - ()
Sea Level Pressure  
Sea Level Pressure 30.22 in    
Wind  
Wind Speed 8 mph ()    
Max Wind Speed 13 mph    
Max Gust Speed -    
Visibility 3.3 miles    
Events      
Averages and records for this station are not official NWS values.
T = Trace of Precipitation, MM = Missing Value Source: Averaged Metar Reports

Daily Weather History Graph

Daily Weather History Graph

Search for Another Location

Airport or City:

Trip Planner

Search our weather history database for the weather conditions in past years. The results will help you decide how hot, cold, wet, or windy it might be!

Date:

Astronomy

Mar. 01, 2013 Rise Set
Actual Time 7:37 AM CET 6:42 PM CET
Civil Twilight 7:06 AM CET 7:13 PM CET
Nautical Twilight 6:31 AM CET 7:48 PM CET
Astronomical Twilight 5:55 AM CET 8:24 PM CET
Moon 11:21 PM CET (3/1) 8:55 AM CET (3/1)
Length of Visible Light 12h 06m
Length of Day
11h 04m
Waning Gibbous, 85% of the Moon is Illuminated
Mar 1
Waning Gibbous
Mar 4
Last Quarter
Mar 11
New
Mar 19
First Quarter
Mar 27
Full

Hourly Weather History & Observations

Time (CET) Temp. Windchill Dew Point Humidity Pressure Visibility Wind Dir Wind Speed Gust Speed Precip Events Conditions
12:00 AM 37.4 °F 32.1 °F 33.8 °F 87% 30.21 in 3.7 mi ENE 6.9 mph - N/A   Overcast
12:30 AM 37.4 °F 31.4 °F 33.8 °F 87% 30.21 in 3.7 mi NE 8.1 mph - N/A   Overcast
1:00 AM 36 °F - 34 °F 89% 30.25 in 4 mi NNE 5.8 mph - -   Overcast
1:00 AM 35.6 °F 30.7 °F 33.8 °F 93% 30.21 in 3.7 mi NNE 5.8 mph - N/A   Overcast
1:30 AM 35.6 °F 30.7 °F 33.8 °F 93% 30.21 in 1.7 mi NNE 5.8 mph - N/A   Mostly Cloudy
2:00 AM 35.6 °F 29.2 °F 33.8 °F 93% 30.21 in - NE 8.1 mph - N/A   Mostly Cloudy
2:30 AM 35.6 °F 28.0 °F 33.8 °F 93% 30.21 in - NE 10.4 mph - N/A   Mostly Cloudy
3:00 AM 35.6 °F 31.7 °F 33.8 °F 93% 30.21 in 1.9 mi NE 4.6 mph - N/A   Mostly Cloudy
3:30 AM 33.8 °F 27.7 °F 32.0 °F 93% 30.21 in - NE 6.9 mph - N/A   Partly Cloudy
4:00 AM 33.8 °F 27.0 °F 32.0 °F 93% 30.18 in 2.5 mi NE 8.1 mph - N/A   Mostly Cloudy
4:30 AM 35.6 °F 29.2 °F 32.0 °F 87% 30.18 in 2.2 mi NE 8.1 mph - N/A   Overcast
5:30 AM 35.6 °F 29.2 °F 32.0 °F 87% 30.18 in 2.5 mi NE 8.1 mph - N/A   Overcast
6:00 AM 35.6 °F 29.9 °F 32.0 °F 87% 30.18 in 2.5 mi NE 6.9 mph - N/A   Overcast
6:30 AM 35.6 °F 29.9 °F 32.0 °F 87% 30.18 in 2.5 mi NE 6.9 mph - N/A   Overcast
7:00 AM 35 °F - 32 °F 85% 30.23 in 3 mi NE 8.1 mph - -   Partly Cloudy
7:00 AM 35.6 °F 29.2 °F 32.0 °F 87% 30.18 in 3.1 mi NE 8.1 mph - N/A   Overcast
7:30 AM 35.6 °F 27.5 °F 32.0 °F 87% 30.21 in - ENE 11.5 mph - N/A   Overcast
8:00 AM 35.6 °F 29.2 °F 32.0 °F 87% 30.21 in - ENE 8.1 mph - N/A   Overcast
8:30 AM 35.6 °F 27.5 °F 32.0 °F 87% 30.21 in - ENE 11.5 mph - N/A   Overcast
9:00 AM 35.6 °F 28.0 °F 32.0 °F 87% 30.21 in 2.8 mi ENE 10.4 mph - N/A   Overcast
9:30 AM 35.6 °F 29.9 °F 33.8 °F 93% 30.24 in - ENE 6.9 mph - N/A   Mostly Cloudy
10:00 AM 37.4 °F 33.8 °F 33.8 °F 87% 30.24 in 3.1 mi NE 4.6 mph - N/A   Overcast
10:30 AM 37.4 °F 31.4 °F 33.8 °F 87% 30.24 in 3.7 mi ENE 8.1 mph - N/A   Mostly Cloudy
11:00 AM 39.2 °F 33.0 °F 33.8 °F 81% 30.24 in 5.0 mi NE 9.2 mph - N/A   Overcast
11:30 AM 39.2 °F 32.0 °F 32.0 °F 75% 30.21 in 6.2 mi ENE 11.5 mph - N/A   Overcast
12:00 PM 41.0 °F 34.7 °F 32.0 °F 70% 30.24 in 6.2 mi ENE 10.4 mph - N/A   Overcast
12:30 PM 41.0 °F 35.2 °F 32.0 °F 70% 30.24 in 6.2 mi NE 9.2 mph - N/A   Mostly Cloudy
1:00 PM 41 °F - 32 °F 59% 30.25 in 6 mi NE 10.4 mph - -   Clear
1:00 PM 41.0 °F 34.7 °F 32.0 °F 70% 30.21 in 5.6 mi NE 10.4 mph - N/A   Overcast
1:30 PM 41.0 °F 35.2 °F 32.0 °F 70% 30.21 in 4.3 mi NNE 9.2 mph - N/A   Overcast
2:00 PM 41.0 °F 35.8 °F 32.0 °F 70% 30.21 in 3.7 mi NE 8.1 mph - N/A   Overcast
2:30 PM 41.0 °F 34.7 °F 32.0 °F 70% 30.21 in 3.1 mi NE 10.4 mph - N/A   Overcast
3:00 PM 41.0 °F 35.8 °F 33.8 °F 76% 30.21 in - NNE 8.1 mph - N/A   Overcast
3:30 PM 41.0 °F 35.2 °F 32.0 °F 70% 30.21 in 3.1 mi NE 9.2 mph - N/A   Overcast
4:00 PM 41.0 °F 35.2 °F 32.0 °F 70% 30.18 in 3.1 mi NE 9.2 mph - N/A   Overcast
4:30 PM 39.2 °F 32.5 °F 32.0 °F 75% 30.21 in - NE 10.4 mph - N/A   Overcast
5:00 PM 39.2 °F 32.0 °F 32.0 °F 75% 30.21 in - NE 11.5 mph - N/A   Overcast
5:30 PM 37.4 °F 29.8 °F 32.0 °F 81% 30.21 in - NE 11.5 mph - N/A   Overcast
6:00 PM 37.4 °F 30.3 °F 32.0 °F 81% 30.21 in - NE 10.4 mph - N/A   Overcast
6:30 PM 37.4 °F 30.8 °F 32.0 °F 81% 30.21 in - NE 9.2 mph - N/A   Overcast
7:00 PM 37 °F - 33 °F 79% 30.25 in 2 mi ENE 11.5 mph - -   Mist
7:00 PM 37.4 °F 29.8 °F 32.0 °F 81% 30.21 in 2.5 mi NE 11.5 mph - N/A   Overcast
7:30 PM 37.4 °F 29.8 °F 32.0 °F 81% 30.24 in 2.2 mi NE 11.5 mph - N/A   Overcast
8:00 PM 37.4 °F 29.8 °F 32.0 °F 81% 30.24 in 2.2 mi NE 11.5 mph - N/A   Overcast
8:30 PM 37.4 °F 30.3 °F 32.0 °F 81% 30.24 in 2.2 mi NE 10.4 mph - N/A   Overcast
9:00 PM 35.6 °F 29.2 °F 32.0 °F 87% 30.24 in 2.5 mi NNE 8.1 mph - N/A   Overcast
9:30 PM 35.6 °F 28.0 °F 30.2 °F 81% 30.24 in 2.5 mi NE 10.4 mph - N/A   Overcast
10:00 PM 35.6 °F 27.5 °F 30.2 °F 81% 30.24 in 2.5 mi ENE 11.5 mph - N/A   Overcast
11:06 PM 35.6 °F 27.1 °F 30.2 °F 81% 30.24 in 2.8 mi NE 12.7 mph - N/A   Overcast
11:30 PM 35.6 °F 27.1 °F 30.2 °F 81% 30.24 in 2.8 mi ENE 12.7 mph - N/A   Overcast